Regional Weather Roundup
Issued by NWS Grand Forks, ND

Home | Current Version | Previous Version | Graphics & Text | Print | Product List | Glossary On
Versions: 1 2 3 4 5 6 7 8 9 10 11 12 13 14 15 16 17 18 19 20 21 22 23 24 25 26 27 28 29 30 31 32 33 34 35 36 37 38 39 40 41 42 43 44 45 46 47 48 49 50
000
ASUS43 KFGF 221231
RWRFGF
PRAIRIE TO PINES  WEATHER ROUNDUP
NATIONAL WEATHER SERVICE EASTERN NORTH DAKOTA/GRAND FORKS ND
700 AM CDT TUE APR 22 2014

 **SATELLITE DATA USED TO AUGMENT SKY COVER AT AUTOMATED STATIONS**
 *****  WEATHER ACROSS EASTERN NORTH DAKOTA  *****

CITY           SKY/WX    TMP DP  RH WIND       PRES   REMARKS
GRAND FORKS    PTCLDY    32  30  92 S5        30.13S FOG
6HR MIN TEMP:  29; 6HR MAX TEMP:  37;

GRAND FRKS AFB MOCLDY    32  32  99 S2        30.13R
GRAND FRKS NWS   N/A     36 N/A N/A E3          N/A
DEVILS LAKE    CLEAR     30  23  74 CALM      30.10S
6HR MIN TEMP:  28; 6HR MAX TEMP:  36;

FARGO          CLEAR     30  27  88 CALM      30.13S
WAHPETON ARPT  SUNNY     30  28  93 CALM      30.15R
$$

 ***** WEATHER ACROSS CENTRAL AND WESTERN NORTH DAKOTA  *****

CITY           SKY/WX    TMP DP  RH WIND       PRES   REMARKS
BISMARCK       MOCLDY    31  28  89 NE8       30.08F WCI  23
6HR MIN TEMP:  28; 6HR MAX TEMP:  39;

MINOT          PTCLDY    31  29  92 N3        30.05F
6HR MIN TEMP:  29; 6HR MAX TEMP:  39;

JAMESTOWN      CLEAR     28  25  88 CALM      30.09F
6HR MIN TEMP:  27; 6HR MAX TEMP:  36;

MINOT AFB      PTCLDY    33  32  93 E5        30.05F
GARRISON         N/A     31  28  89 CALM      30.05S
WILLISTON      PTCLDY    41  30  65 NE5       29.98F
6HR MIN TEMP:  37; 6HR MAX TEMP:  48;

DICKINSON      PTCLDY    42  28  57 SE14      29.97F
6HR MIN TEMP:  38; 6HR MAX TEMP:  43;

HETTINGER      CLEAR     39  29  67 E14       29.98F
6HR MIN TEMP:  38; 6HR MAX TEMP:  46;

$$

 *****  OTHER AIRPORT OBSERVATIONS IN OUR AREA  *****

CITY           SKY/WX    TMP DP  RH WIND       PRES   REMARKS
WALHALLA         N/A     32  32 100 SW5       30.12S
GRAFTON AIRPOR FOG       32  32 100 E6        30.14R VSB 1/4
VALLEY CITY AR FAIR      32  32 100 CALM      30.12S
CANDO          FAIR      28  28 100 CALM      30.10F
CAVALIER APRT  FAIR      32  30  93 CALM      30.13R FOG
GWINNER        SUNNY     36  34  93 SW5       30.14S
ROLLA          FAIR      28  28 100 CALM      30.10S
 ***** THE ABOVE OBSERVATIONS ARE NON NWS ARE NOT QUALITY
       CONTROLLED AND MAY MIS-REPORT RAIN FOR SNOW...
$$

  *****  WEATHER ACROSS NORTHERN MINNESOTA  *****

CITY           SKY/WX    TMP DP  RH WIND       PRES   REMARKS
FLAG ISLAND    CLEAR     30  27  86 W5        30.13S
WARROAD        MOCLDY    30  28  93 CALM      30.14S
ROSEAU         PTCLDY    30  27  86 CALM      30.14S
HALLOCK        CLOUDY    34  30  86 E5        30.14R
THF RVR FALLS  PTCLDY    30  28  93 E6        30.16R WCI  24
6HR MIN TEMP:  28; 6HR MAX TEMP:  34;

BAUDETTE       PTCLDY    28  25  88 CALM      30.14R
6HR MIN TEMP:  26; 6HR MAX TEMP:  30;

WASKISH        PTCLDY    28  27  93 CALM      30.14R
CROOKSTON      PTCLDY    30  30 100 CALM      30.16R FOG
$$
  *****  WEATHER ACROSS CENTRAL AND WEST MINNESOTA  *****

CITY           SKY/WX    TMP DP  RH WIND       PRES   REMARKS
FOSSTON        MOCLDY    28  25  86 CALM      30.15R
BEMIDJI        MOCLDY    25  23  91 CALM      30.14R
PARK RAPIDS    CLEAR     28  25  88 CALM      30.13R
6HR MIN TEMP:  25; 6HR MAX TEMP:  36;

ELBOW LAKE     FAIR      38  36  92 CALM      30.14R FOG
6HR MIN TEMP:  31; 6HR MAX TEMP:  39;

WADENA         PTCLDY    28  27  93 CALM      30.14R FOG
DETROIT LAKES  PTCLDY    32  30  93 CALM      30.14S FOG
MOORHEAD       CLEAR     34  34 100 SE3       30.15R FOG
FERGUS FALLS   CLEAR     34  30  86 CALM      30.13R FOG
MORRIS MN      CLEAR     30  27  86 CALM      30.14R
STAPLES        CLEAR     28  27  93 CALM      30.14R
$$
  *****  WEATHER ELSEWHERE ACROSS MINNESOTA  *****

CITY           SKY/WX    TMP DP  RH WIND       PRES   REMARKS
DULUTH         PTCLDY    32  24  72 NW9       30.06R WCI  24
6HR MIN TEMP:  30; 6HR MAX TEMP:  36;

INTRNTL FALLS  CLEAR     28  24  85 NW5       30.11R WCI  23
6HR MIN TEMP:  26; 6HR MAX TEMP:  34;

ELY            CLEAR     30  25  80 NW8       30.05S WCI  23
CLOQUET        CLEAR     32  25  74 NW6       30.09R
WHEATON        CLEAR     36  32  87 SE5       30.16S
BRAINERD       CLEAR     34  25  69 CALM      30.13R
6HR MIN TEMP:  31; 6HR MAX TEMP:  42;

HIBBING        CLEAR     29  23  78 NW7       30.08R WCI  22
6HR MIN TEMP:  26; 6HR MAX TEMP:  36;

ALEXANDRIA     CLEAR     32  31  96 W5        30.14R
6HR MIN TEMP:  31; 6HR MAX TEMP:  40;

SAINT CLOUD    CLEAR     34  29  82 CALM      30.13S
6HR MIN TEMP:  32; 6HR MAX TEMP:  42;

MINNEAPOLIS    PTCLDY    38  28  67 NW6       30.12S
6HR MIN TEMP:  38; 6HR MAX TEMP:  44;

$$

  *****  WEATHER ACROSS SOUTH DAKOTA  *****

CITY           SKY/WX    TMP DP  RH WIND       PRES   REMARKS
SIOUX FALLS    PTCLDY    29  26  89 CALM      30.15S
6HR MIN TEMP:  29; 6HR MAX TEMP:  38;

BROOKINGS      NOT AVBL
WATERTOWN      CLEAR     30  27  88 CALM      30.13S
6HR MIN TEMP:  28; 6HR MAX TEMP:  36;

HURON          CLEAR     34  29  82 SE5       30.13S
6HR MIN TEMP:  32; 6HR MAX TEMP:  41;

SISSETON         N/A     32  29  88 SW3       30.13R
ABERDEEN       CLEAR     25  24  96 SE6       30.13F WCI  18
6HR MIN TEMP:  24; 6HR MAX TEMP:  34;

MITCHELL       CLEAR     32  29  88 E6        30.14S
PIERRE         CLEAR     36  31  82 E9        30.05F
6HR MIN TEMP:  35; 6HR MAX TEMP:  43;

MOBRIDGE       PTCLDY    37  29  72 E8        30.05S
RAPID CITY     PTCLDY    35  28  75 SE6       29.92F
6HR MIN TEMP:  34; 6HR MAX TEMP:  47;

$$

  *****  SOME WEATHER IN NEARBY STATES *****

CITY           SKY/WX    TMP DP  RH WIND       PRES   REMARKS
GLASGOW MT     MOCLDY    44  29  55 E16       29.84F
6HR MIN TEMP:  44; 6HR MAX TEMP:  50;

GREAT FALLS MT CLOUDY    46  25  43 E3        29.72F
6HR MIN TEMP:  43; 6HR MAX TEMP:  54;

CHEYENNE WY    CLOUDY    42  33  70 W6        30.03F
6HR MIN TEMP:  39; 6HR MAX TEMP:  48;

SCOTTSBLUFF NE PTCLDY    44  31  60 E10       29.98F
6HR MIN TEMP:  44; 6HR MAX TEMP:  47;

OMAHA NE       CLEAR     41  33  73 NW3       30.16S
6HR MIN TEMP:  38; 6HR MAX TEMP:  50;

DES MOINES IA  CLEAR     44  31  60 N7        30.13R
6HR MIN TEMP:  43; 6HR MAX TEMP:  54;

DAVENPORT IA   CLEAR     41  35  79 N14       30.04R
6HR MIN TEMP:  41; 6HR MAX TEMP:  50;

CHICAGO IL     PTCLDY    46  31  55 N14       29.95R
6HR MIN TEMP:  43; 6HR MAX TEMP:  60;

EAU CLAIRE WI  CLEAR     35  27  72 NW7       30.07S
6HR MIN TEMP:  32; 6HR MAX TEMP:  42;

LA CROSSE WI   CLEAR     40  29  64 N9        30.08R
6HR MIN TEMP:  39; 6HR MAX TEMP:  49;

$$

  *****  SOME NATIONAL WEATHER *****

CITY           SKY/WX    TMP DP  RH WIND       PRES   REMARKS
LA GUARDIA NY  PTSUNNY   53  44  71 SW9       29.75F
6HR MIN TEMP:  50; 6HR MAX TEMP:  53;

RALEIGH NC     PTSUNNY   55  43  63 SW5       29.82S
6HR MIN TEMP:  47; 6HR MAX TEMP:  55;

ATLANTA GA     MOSUNNY   63  54  72 W8        29.92R
6HR MIN TEMP:  59; 6HR MAX TEMP:  63;

NEW ORLEANS LA PTCLDY    62  61  96 W5        30.00R FOG
6HR MIN TEMP:  61; 6HR MAX TEMP:  65;

OKLAHOMA CITY  CLEAR     52  47  83 NW10      30.11R
6HR MIN TEMP:  52; 6HR MAX TEMP:  62;

ALBUQUERQUE NM MOCLDY    61  38  42 E16       30.15S
6HR MIN TEMP:  61; 6HR MAX TEMP:  67;

SALT LAKE CITY CLOUDY    68  30  24 S17       29.79F
6HR MIN TEMP:  65; 6HR MAX TEMP:  69;

LOS ANGELES CA CLOUDY    61  54  77 W5        29.95F
6HR MIN TEMP:  59; 6HR MAX TEMP:  61;

BOISE ID       CLOUDY    57  32  38 N14G24    29.75R



USA.gov is the U.S. government's official web portal to all federal, state and local government web resources and services.